TimeMST,TemperatureF,Dew PointF,Humidity,Sea Level PressureIn,VisibilityMPH,Wind Direction,Wind SpeedMPH,Gust SpeedMPH,PrecipitationIn,Events,Conditions,WindDirDegrees,DateUTC
12:56 AM,51.1,33.1,50,30.13,10.0,WSW,5.8,-,N/A,,Clear,240,2013-11-30 07:56:00
1:56 AM,50.0,34.0,54,30.13,10.0,West,3.5,-,N/A,,Clear,260,2013-11-30 08:56:00
2:56 AM,48.0,35.1,61,30.13,10.0,Calm,Calm,-,N/A,,Clear,0,2013-11-30 09:56:00
3:56 AM,46.9,35.1,63,30.12,10.0,Calm,Calm,-,N/A,,Clear,0,2013-11-30 10:56:00
4:56 AM,48.0,34.0,58,30.12,10.0,Calm,Calm,-,N/A,,Clear,0,2013-11-30 11:56:00
5:56 AM,46.9,33.1,59,30.14,10.0,Calm,Calm,-,N/A,,Clear,0,2013-11-30 12:56:00
6:56 AM,48.0,34.0,58,30.17,10.0,Calm,Calm,-,N/A,,Clear,0,2013-11-30 13:56:00
7:56 AM,46.9,34.0,61,30.18,10.0,Calm,Calm,-,N/A,,Clear,0,2013-11-30 14:56:00
8:56 AM,51.1,37.0,59,30.18,10.0,Calm,Calm,-,N/A,,Clear,0,2013-11-30 15:56:00
9:56 AM,55.9,36.0,47,30.17,10.0,Calm,Calm,-,N/A,,Clear,0,2013-11-30 16:56:00
10:56 AM,60.1,37.0,42,30.16,10.0,East,4.6,-,N/A,,Clear,100,2013-11-30 17:56:00
11:56 AM,63.0,37.0,38,30.13,10.0,ESE,6.9,-,N/A,,Clear,110,2013-11-30 18:56:00
12:56 PM,66.0,34.0,30,30.09,10.0,ENE,6.9,-,N/A,,Clear,60,2013-11-30 19:56:00
1:56 PM,66.9,34.0,30,30.07,10.0,ESE,3.5,-,N/A,,Clear,110,2013-11-30 20:56:00
2:56 PM,68.0,33.1,27,30.06,10.0,East,5.8,-,N/A,,Clear,100,2013-11-30 21:56:00
3:56 PM,66.9,30.9,26,30.06,10.0,East,3.5,-,N/A,,Clear,90,2013-11-30 22:56:00
4:56 PM,64.9,28.9,26,30.08,10.0,ESE,3.5,-,N/A,,Scattered Clouds,110,2013-11-30 23:56:00
5:56 PM,60.1,33.1,36,30.11,10.0,SSE,4.6,-,N/A,,Partly Cloudy,150,2013-12-01 00:56:00
6:56 PM,57.9,32.0,37,30.12,10.0,South,5.8,-,N/A,,Mostly Cloudy,190,2013-12-01 01:56:00
7:56 PM,55.9,30.9,39,30.15,10.0,WNW,5.8,-,N/A,,Mostly Cloudy,290,2013-12-01 02:56:00
8:56 PM,55.0,28.0,35,30.14,10.0,SW,3.5,-,N/A,,Partly Cloudy,230,2013-12-01 03:56:00
9:56 PM,53.1,30.9,43,30.13,10.0,SSE,3.5,-,N/A,,Clear,150,2013-12-01 04:56:00
10:56 PM,55.0,30.0,38,30.13,10.0,Calm,Calm,-,N/A,,Clear,0,2013-12-01 05:56:00
11:56 PM,55.0,30.9,40,30.11,10.0,West,3.5,-,N/A,,Overcast,280,2013-12-01 06:56:00